Regional Weather Roundup
Issued by NWS

Home | Current Version | Previous Version | Text Only | Print | Product List | Glossary On
Versions: 1 2 3 4 5 6 7 8 9 10 11 12 13 14 15 16 17 18 19 20 21 22 23 24 25 26 27 28 29 30 31 32 33 34 35 36 37 38 39 40 41 42 43 44 45 46 47 48 49 50
000
ASUS45 KCYS 092110
RWRWY

WYOMING REGIONAL WEATHER ROUNDUP
NATIONAL WEATHER SERVICE CHEYENNE WY
200 PM MST TUE FEB 09 2016

NOTE:  "FAIR" INDICATES FEW OR NO CLOUDS BELOW 12,000 FEET
WITH NO SIGNIFICANT WEATHER AND/OR OBSTRUCTIONS TO VISIBILITY.

WYZ001-092200-
YELLOWSTONE NATIONAL PARK

CITY           SKY/WX    TMP DP  RH WIND       PRES   REMARKS
LK YELLOWSTONE   N/A     28  19  69 CALM      30.49F
W YELLOWSTONE  NOT AVBL

$$
WYZ002>013-054>058-071-098>099-092200-
NORTHERN WYOMING

CITY           SKY/WX    TMP DP  RH WIND       PRES   REMARKS
JACKSON        SUNNY     21  19  93 CALM      30.51F
CODY           FAIR      54  27  35 NE10      30.26F
GREYBULL       FAIR      46  25  43 S3        30.29F
WORLAND        FAIR      46  28  49 NE3       30.29F
SHERIDAN       FAIR      59  28  30 N22       30.20F
BUFFALO        FAIR      54  29  38 NW7G18    30.23F
GILLETTE       FAIR      51  32  48 W14       30.19F
HULETT         FAIR      48  30  49 W7        30.18F
NEWCASTLE      FAIR      48  28  46 NW20      30.19F

$$
WYZ014>020-022>026-101>103-092200-
CENTRAL WYOMING

CITY           SKY/WX    TMP DP  RH WIND       PRES   REMARKS
BIG PINEY      FAIR      47  26  44 N8        30.41F
PINEDALE       FAIR      45  23  42 W15       30.40F
DUBOIS         FAIR      54   5  14 MISG      30.36F
LANDER         FAIR      37  21  52 CALM      30.32F
RIVERTON       FAIR      36  24  62 CALM      30.35F
CASPER         FAIR      38  24  57 SW16      30.31F WCI  29
DOUGLAS        PTSUNNY   47  28  47 NW16        N/A

$$
WYZ021-027>030-104>119-092200-
SOUTHERN WYOMING

CITY           SKY/WX    TMP DP  RH WIND       PRES   REMARKS
EVANSTON       FAIR      35  23  61 S3        30.48F
KEMMERER       FAIR      32  27  80 SW15      30.45F WCI  22
FORT BRIDGER   CLEAR     41  28  60 W20G25    30.47F
ROCK SPRINGS   FAIR      38  27  64 W21       30.42F WCI  28
DIXON          FAIR      32  20  61 CALM      30.49F
RAWLINS        FAIR      36  24  62 W22       30.40F WCI  25
SARATOGA       FAIR      34  23  64 SE3       30.42F
LARAMIE        FAIR      40  24  53 N7        30.32F
CHEYENNE       FAIR      46  22  38 NW24G36   30.27F
TORRINGTON     FAIR      52  27  38 NW20G26   30.22F
PINE BLUFFS    FAIR      46  28  49 NW18G26   30.26F

$$



USA.gov is the U.S. government's official web portal to all federal, state and local government web resources and services.